Simultaneous Nadir Overpasses (SNOs) Predictions

Prediction of SNOs between METOP-A and NOAA-19 Satellite Orbit:

Table of predicted SNOs for the next 14.0 days since TLE Epoch: 8/4/2017
Index Date (METOP-A) Time (METOP-A) Lat,Lon (METOP-A) SZA (METOP-A ) Date (NOAA-19) Time (NOAA-19) Lat,Lon (NOAA-19) SZA (NOAA-19 ) Distance(km) Time Diff (sec)
1 08/12/2017 08:44:36 -77.91,-124.02 116.96 08/12/2017 08:43:31 -77.92,-127.98 117.00 92.18 65
2 08/12/2017 09:35:25 77.51, 41.44 62.63 08/12/2017 09:34:25 77.52, 41.36 62.63 2.00 60
3 08/12/2017 10:26:07 -77.51,-151.24 117.37 08/12/2017 10:25:22 -77.51,-151.31 117.37 1.63 45
4 08/12/2017 11:16:47 77.49, 16.01 62.63 08/12/2017 11:16:26 77.50, 15.96 62.63 1.34 21
5 08/12/2017 12:07:29 -77.49,-176.67 117.37 08/12/2017 12:07:23 -77.49,-176.71 117.37 0.98 6
6 08/12/2017 12:58:09 77.47, -9.42 62.63 08/12/2017 12:58:27 77.48, -9.44 62.64 0.81 18
7 08/12/2017 13:48:51 -77.47, 157.90 117.37 08/12/2017 13:49:24 -77.47, 157.89 117.37 0.70 33
8 08/12/2017 14:39:31 77.45, -34.85 62.63 08/12/2017 14:40:28 77.46, -34.84 62.64 0.73 57
9 08/12/2017 15:30:13 -77.45, 132.47 117.37 08/12/2017 15:31:25 -77.45, 132.50 117.37 1.09 72




NCC Satellite Simultaneous Nadir Overpasses (SNOs) Prediction Service
